Weather in Sakarçäge

Turkmenistan     37°39′48″N   61°39′18″E
temp.,
°C
wind,
m/s
gust,
m/s
humid.,
%
clouds,
%
prec.,
mm/h
press.,
hPa
HPBL,
m
18 april, sun
sun1823:00+19ese33437 0.0 102046
02:00+18s22473 0.0 102012
05:00+18ssw33480 0.0 102023
08:00+20s11440 0.0 102186
11:00+25sse11260 0.0 10211522
14:00+27e11170 0.0 10192555
17:00+28e22150 0.0 10172640
20:00+24e35200 0.0 101773
19 april, mon
mon1923:00+22ese410263 0.0 1016192
02:00+20se49320 0.0 1015161
05:00+18se47355 0.0 1014112
08:00+20se4734100 0.0 1014211
11:00+26se4322100 0.0 10131165
14:00+28ne11152 0.0 10111860
17:00+29n541546 0.0 10102173
20:00+26nne3617100 0.0 1011141
20 april, tue
tue2023:00+24nne792963 0.0 1012374
02:00+21nnw45335 0.0 101273
05:00+20wnw44352 0.0 101357
08:00+22wnw69380 0.0 1014473
11:00+26wnw67243 0.0 10141654
14:00+29wnw781845 0.0 10132783
17:00+29nw89179 0.0 10112770
20:00+25nnw592320 0.0 1012197
21 april, wed
wed2123:00+23n59305 0.0 1013242
02:00+20nne483678 0.0 1014177
05:00+18ne484787 0.0 1014191
08:00+20ene45475 0.0 1017382
11:00+23ne433564 0.0 10171103
14:00+26nne432830 0.0 10161728
17:00+26ne64278 0.0 10151713
20:00+23ne5826100 0.0 1017298
22 april, thu
thu2223:00+21ne6102687 0.0 1017432
02:00+18ene71125100 0.0 1018429
05:00+16ene6102880 0.0 1019366
08:00+16ene57276 0.0 1021424
11:00+21ene541799 0.0 1021738
14:00+24ne441099 0.0 10201097
17:00+25ne66105 0.0 10181172
20:00+21ne34145 0.0 101953